Left ArrowRight Arrow

31.31129, -92.44514

Hourly Observations for June 21, 2024

Temp ( °F °C ) Dew Point ( °F °C ) Humidity (%) Winds ( mph kmh ) Pressure ( in mb ) Visibility ( mi km ) Precip ( " mm )
12:53 am 00:53 Clear 77 25 70 21.1 79 79 E 3 6 30.14 1021 10 16 0.00 0.00
1:53 am 01:53 Clear 75 23.9 70 21.1 84 84 Calm 30.14 1021 10 16 0.00 0.00
2:53 am 02:53 Clear 74 23.3 70 21.1 87 87 ENE 5 7 30.13 1020 10 16 0.00 0.00
3:53 am 03:53 Clear 73 22.8 70 21.1 90 90 ENE 3 6 30.13 1020 10 16 0.00 0.00
4:53 am 04:53 Clear 73 22.8 69 20.6 87 87 ENE 3 6 30.12 1020 10 16 0.00 0.00
5:53 am 05:53 Clear 71 21.7 69 20.6 93 93 ENE 3 6 30.14 1021 10 16 0.00 0.00
6:53 am 06:53 Partly Cloudy 73 22.8 69 20.6 87 87 ENE 6 9 30.15 1021 10 16 0.00 0.00
7:53 am 07:53 Sunny 77 25 71 21.7 82 82 VRB 5 7 30.16 1021 10 16 0.00 0.00
8:53 am 08:53 Sunny 82 27.8 73 22.8 74 74 E 5 7 30.17 1022 10 16 0.00 0.00
9:53 am 09:53 Cloudy 85 29.4 74 23.3 70 70 ESE 6 9 30.17 1022 10 16 0.00 0.00
10:53 am 10:53 Cloudy 86 30 72 22.2 63 63 SE 7 11 30.16 1021 10 16 0.00 0.00
11:53 am 11:53 Partly Cloudy 90 32.2 73 22.8 58 58 ESE 8 13 30.15 1021 10 16 0.00 0.00
12:53 pm 12:53 Mostly Cloudy 91 32.8 72 22.2 54 54 VRB 6 9 30.14 1021 10 16 0.00 0.00
1:53 pm 13:53 Mostly Sunny 91 32.8 71 21.7 52 52 undefined N/A 30.13 1020 10 16 0.00 0.00
2:53 pm 14:53 Mostly Sunny 92 33.3 71 21.7 51 51 E 7 11 30.10 1019 10 16 0.00 0.00
3:53 pm 15:53 Mostly Sunny 92 33.3 70 21.1 49 49 VRB 5 7 30.08 1019 10 16 0.00 0.00
4:53 pm 16:53 Sunny 93 33.9 69 20.6 46 46 VRB 3 6 30.06 1018 10 16 0.00 0.00
5:53 pm 17:53 Mostly Sunny 93 33.9 70 21.1 47 47 E 7 11 30.05 1018 10 16 0.00 0.00
6:53 pm 18:53 Sunny 92 33.3 70 21.1 49 49 Calm 30.05 1018 10 16 0.00 0.00
7:53 pm 19:53 Sunny 88 31.1 72 22.2 59 59 E 5 7 30.05 1018 10 16 0.00 0.00
8:53 pm 20:53 Clear 83 28.3 73 22.8 72 72 E 3 6 30.06 1018 10 16 0.00 0.00
9:53 pm 21:53 Clear 81 27.2 73 22.8 77 77 ENE 5 7 30.06 1018 10 16 0.00 0.00
10:53 pm 22:53 Clear 81 27.2 73 22.8 77 77 E 3 6 30.08 1019 10 16 0.00 0.00
11:53 pm 23:53 Clear 79 26.1 74 23.3 85 85 Calm 30.08 1019 10 16 0.00 0.00

Powered by Vaisala Xweather